Time,TemperatureF,DewpointF,PressureIn,WindDirection,WindDirectionDegrees,WindSpeedMPH,WindSpeedGustMPH,Humidity,HourlyPrecipIn,Conditions,Clouds,dailyrainin,SolarRadiationWatts/m^2,SoftwareType,DateUTC
2013-04-18 00:02:00,50.7,33.2,30.37,NNE,23,0.0,0.0,51,0.00,,,0.00,0,Wunderground v.1.15,2013-04-18 04:02:00,
2013-04-18 00:04:00,50.5,33.5,30.37,NNE,23,0.0,0.0,52,0.00,,,0.00,0,Wunderground v.1.15,2013-04-18 04:04:00,
2013-04-18 00:08:00,50.2,33.2,30.37,NNE,23,0.0,0.0,52,0.00,,,0.00,0,Wunderground v.1.15,2013-04-18 04:08:00,
2013-04-18 00:14:00,49.6,33.2,30.38,NNE,23,0.0,0.0,53,0.00,,,0.00,0,Wunderground v.1.15,2013-04-18 04:14:00,
2013-04-18 00:20:00,49.2,32.3,30.38,NNE,23,0.0,0.0,52,0.00,,,0.00,0,Wunderground v.1.15,2013-04-18 04:20:00,
2013-04-18 00:26:00,48.9,32.0,30.39,NNE,23,0.0,0.0,52,0.00,,,0.00,0,Wunderground v.1.15,2013-04-18 04:26:00,
2013-04-18 00:32:00,48.6,33.6,30.39,NNE,23,0.0,0.0,56,0.00,,,0.00,0,Wunderground v.1.15,2013-04-18 04:32:00,
2013-04-18 00:38:00,48.2,33.2,30.39,NNE,23,0.0,0.0,56,0.00,,,0.00,0,Wunderground v.1.15,2013-04-18 04:38:00,
2013-04-18 00:44:00,47.7,33.6,30.40,NNE,23,0.0,1.0,58,0.00,,,0.00,0,Wunderground v.1.15,2013-04-18 04:44:00,
2013-04-18 00:46:00,47.6,33.1,30.40,NNE,23,0.0,2.0,57,0.00,,,0.00,0,Wunderground v.1.15,2013-04-18 04:46:00,
2013-04-18 00:52:00,47.3,33.3,30.40,NNE,23,1.0,1.0,58,0.00,,,0.00,0,Wunderground v.1.15,2013-04-18 04:52:00,
2013-04-18 00:58:00,47.0,33.4,30.40,NNE,23,0.0,1.0,59,0.00,,,0.00,0,Wunderground v.1.15,2013-04-18 04:58:00,
2013-04-18 01:04:00,46.8,33.6,30.40,NNE,23,0.0,0.0,60,0.00,,,0.00,0,Wunderground v.1.15,2013-04-18 05:04:00,
2013-04-18 01:10:00,46.7,33.5,30.40,NNE,23,0.0,0.0,60,0.00,,,0.00,0,Wunderground v.1.15,2013-04-18 05:10:00,
2013-04-18 01:16:00,46.5,33.8,30.40,NNE,23,0.0,0.0,61,0.00,,,0.00,0,Wunderground v.1.15,2013-04-18 05:16:00,
2013-04-18 01:22:00,46.2,33.5,30.40,NNE,23,0.0,0.0,61,0.00,,,0.00,0,Wunderground v.1.15,2013-04-18 05:22:00,
2013-04-18 01:28:00,46.0,33.7,30.40,NNE,23,0.0,0.0,62,0.00,,,0.00,0,Wunderground v.1.15,2013-04-18 05:28:00,
2013-04-18 01:34:00,45.8,33.5,30.40,NNE,23,0.0,0.0,62,0.00,,,0.00,0,Wunderground v.1.15,2013-04-18 05:34:00,
2013-04-18 01:40:00,45.7,33.4,30.40,NNE,23,0.0,0.0,62,0.00,,,0.00,0,Wunderground v.1.15,2013-04-18 05:40:00,
2013-04-18 01:46:00,45.5,33.6,30.40,NNE,23,0.0,0.0,63,0.00,,,0.00,0,Wunderground v.1.15,2013-04-18 05:46:00,
2013-04-18 01:52:00,45.5,34.0,30.40,NNE,23,0.0,0.0,64,0.00,,,0.00,0,Wunderground v.1.15,2013-04-18 05:52:00,
2013-04-18 01:58:00,45.5,34.4,30.39,NNE,23,0.0,0.0,65,0.00,,,0.00,0,Wunderground v.1.15,2013-04-18 05:58:00,
2013-04-18 02:04:00,45.5,34.4,30.39,NNE,23,0.0,0.0,65,0.00,,,0.00,0,Wunderground v.1.15,2013-04-18 06:04:00,
2013-04-18 02:10:00,45.4,33.9,30.39,NNE,23,0.0,0.0,64,0.00,,,0.00,0,Wunderground v.1.15,2013-04-18 06:10:00,
2013-04-18 02:16:00,45.4,33.9,30.39,NNE,23,0.0,1.0,64,0.00,,,0.00,0,Wunderground v.1.15,2013-04-18 06:16:00,
2013-04-18 02:22:00,45.5,34.0,30.39,NNE,23,0.0,0.0,64,0.00,,,0.00,0,Wunderground v.1.15,2013-04-18 06:22:00,
2013-04-18 02:28:00,45.4,33.9,30.39,NNE,23,0.0,0.0,64,0.00,,,0.00,0,Wunderground v.1.15,2013-04-18 06:28:00,
2013-04-18 02:34:00,45.1,34.0,30.39,NNE,23,0.0,0.0,65,0.00,,,0.00,0,Wunderground v.1.15,2013-04-18 06:34:00,
2013-04-18 02:40:00,45.1,34.0,30.39,NNE,23,0.0,0.0,65,0.00,,,0.00,0,Wunderground v.1.15,2013-04-18 06:40:00,
2013-04-18 02:46:00,44.8,33.7,30.39,NNE,23,0.0,0.0,65,0.00,,,0.00,0,Wunderground v.1.15,2013-04-18 06:46:00,
2013-04-18 02:52:00,44.3,33.7,30.39,NNE,23,0.0,0.0,66,0.00,,,0.00,0,Wunderground v.1.15,2013-04-18 06:52:00,
2013-04-18 02:58:00,44.1,34.2,30.39,NNE,23,0.0,0.0,68,0.00,,,0.00,0,Wunderground v.1.15,2013-04-18 06:58:00,
2013-04-18 03:04:00,43.9,34.0,30.39,NNE,23,0.0,0.0,68,0.00,,,0.00,0,Wunderground v.1.15,2013-04-18 07:04:00,
2013-04-18 03:10:00,43.9,34.4,30.40,NNE,23,0.0,0.0,69,0.00,,,0.00,0,Wunderground v.1.15,2013-04-18 07:10:00,
2013-04-18 03:16:00,43.9,34.7,30.40,NNE,23,0.0,0.0,70,0.00,,,0.00,0,Wunderground v.1.15,2013-04-18 07:16:00,
2013-04-18 03:22:00,43.8,35.0,30.40,NNE,23,0.0,0.0,71,0.00,,,0.00,0,Wunderground v.1.15,2013-04-18 07:22:00,
2013-04-18 03:28:00,43.6,35.2,30.40,NNE,23,0.0,0.0,72,0.00,,,0.00,0,Wunderground v.1.15,2013-04-18 07:28:00,
2013-04-18 03:34:00,43.3,35.2,30.40,NNE,23,0.0,0.0,73,0.00,,,0.00,0,Wunderground v.1.15,2013-04-18 07:34:00,
2013-04-18 03:40:00,43.1,34.7,30.41,NNE,23,0.0,0.0,72,0.00,,,0.00,0,Wunderground v.1.15,2013-04-18 07:40:00,
2013-04-18 03:46:00,43.1,34.7,30.41,NNE,23,0.0,0.0,72,0.00,,,0.00,0,Wunderground v.1.15,2013-04-18 07:46:00,
2013-04-18 03:52:00,43.1,34.7,30.41,NNE,23,0.0,0.0,72,0.00,,,0.00,0,Wunderground v.1.15,2013-04-18 07:52:00,
2013-04-18 03:58:00,43.1,34.3,30.42,NNE,23,0.0,0.0,71,0.00,,,0.00,0,Wunderground v.1.15,2013-04-18 07:58:00,
2013-04-18 04:04:00,43.1,34.0,30.42,NNE,23,0.0,0.0,70,0.00,,,0.00,0,Wunderground v.1.15,2013-04-18 08:04:00,
2013-04-18 04:10:00,43.1,33.6,30.42,NNE,23,0.0,0.0,69,0.00,,,0.00,0,Wunderground v.1.15,2013-04-18 08:10:00,
2013-04-18 04:16:00,42.9,33.4,30.42,NNE,23,0.0,0.0,69,0.00,,,0.00,0,Wunderground v.1.15,2013-04-18 08:16:00,
2013-04-18 04:22:00,42.9,33.4,30.42,NNE,23,0.0,0.0,69,0.00,,,0.00,0,Wunderground v.1.15,2013-04-18 08:22:00,
2013-04-18 04:28:00,42.9,33.4,30.43,NNE,23,0.0,0.0,69,0.00,,,0.00,0,Wunderground v.1.15,2013-04-18 08:28:00,
2013-04-18 04:34:00,42.6,33.1,30.43,NNE,23,0.0,0.0,69,0.00,,,0.00,0,Wunderground v.1.15,2013-04-18 08:34:00,
2013-04-18 04:40:00,42.5,34.1,30.43,NNE,23,0.0,0.0,72,0.00,,,0.00,0,Wunderground v.1.15,2013-04-18 08:40:00,
2013-04-18 04:46:00,42.3,33.9,30.43,NNE,23,0.0,0.0,72,0.00,,,0.00,0,Wunderground v.1.15,2013-04-18 08:46:00,
2013-04-18 04:52:00,42.2,34.2,30.43,NNE,23,0.0,0.0,73,0.00,,,0.00,0,Wunderground v.1.15,2013-04-18 08:52:00,
2013-04-18 04:58:00,42.1,34.4,30.43,NNE,23,0.0,0.0,74,0.00,,,0.00,0,Wunderground v.1.15,2013-04-18 08:58:00,
2013-04-18 05:04:00,42.1,34.4,30.43,NNE,23,0.0,0.0,74,0.00,,,0.00,0,Wunderground v.1.15,2013-04-18 09:04:00,
2013-04-18 05:10:00,42.1,34.1,30.44,NNE,23,0.0,0.0,73,0.00,,,0.00,0,Wunderground v.1.15,2013-04-18 09:10:00,
2013-04-18 05:16:00,42.1,34.1,30.44,NNE,23,0.0,0.0,73,0.00,,,0.00,0,Wunderground v.1.15,2013-04-18 09:16:00,
2013-04-18 05:22:00,41.9,34.2,30.44,NNE,23,0.0,0.0,74,0.00,,,0.00,0,Wunderground v.1.15,2013-04-18 09:22:00,
2013-04-18 05:28:00,41.6,33.6,30.44,NNE,23,0.0,0.0,73,0.00,,,0.00,0,Wunderground v.1.15,2013-04-18 09:28:00,
2013-04-18 05:34:00,41.3,33.0,30.44,NNE,23,0.0,0.0,72,0.00,,,0.00,0,Wunderground v.1.15,2013-04-18 09:34:00,
2013-04-18 05:40:00,41.6,32.5,30.44,NNE,23,0.0,0.0,70,0.00,,,0.00,0,Wunderground v.1.15,2013-04-18 09:40:00,
2013-04-18 05:46:00,41.8,32.0,30.44,NNE,23,0.0,0.0,68,0.00,,,0.00,0,Wunderground v.1.15,2013-04-18 09:46:00,
2013-04-18 05:52:00,41.8,32.4,30.44,NNE,23,0.0,0.0,69,0.00,,,0.00,0,Wunderground v.1.15,2013-04-18 09:52:00,
2013-04-18 05:58:00,41.8,31.6,30.44,NNE,23,0.0,0.0,67,0.00,,,0.00,5,Wunderground v.1.15,2013-04-18 09:58:00,
2013-04-18 06:04:00,42.1,31.6,30.44,NNE,23,0.0,0.0,66,0.00,,,0.00,9,Wunderground v.1.15,2013-04-18 10:04:00,
2013-04-18 06:10:00,42.2,31.6,30.44,NNE,23,0.0,0.0,66,0.00,,,0.00,12,Wunderground v.1.15,2013-04-18 10:10:00,
2013-04-18 06:16:00,42.2,31.6,30.44,NNE,23,0.0,0.0,66,0.00,,,0.00,18,Wunderground v.1.15,2013-04-18 10:16:00,
2013-04-18 06:22:00,42.2,32.0,30.44,NNE,23,0.0,0.0,67,0.00,,,0.00,25,Wunderground v.1.15,2013-04-18 10:22:00,
2013-04-18 06:28:00,42.1,32.3,30.44,NNE,23,0.0,1.0,68,0.00,,,0.00,28,Wunderground v.1.15,2013-04-18 10:28:00,
2013-04-18 06:34:00,42.2,33.1,30.44,NNE,23,0.0,0.0,70,0.00,,,0.00,37,Wunderground v.1.15,2013-04-18 10:34:00,
2013-04-18 06:40:00,42.6,32.8,30.44,NNE,23,0.0,0.0,68,0.00,,,0.00,51,Wunderground v.1.15,2013-04-18 10:40:00,
2013-04-18 06:46:00,43.5,32.9,30.44,NNE,23,0.0,0.0,66,0.00,,,0.00,72,Wunderground v.1.15,2013-04-18 10:46:00,
2013-04-18 06:52:00,45.2,32.5,30.44,East,94,1.0,2.0,61,0.00,,,0.00,91,Wunderground v.1.15,2013-04-18 10:52:00,
2013-04-18 06:58:00,47.1,32.2,30.45,East,88,2.0,4.0,56,0.00,,,0.00,128,Wunderground v.1.15,2013-04-18 10:58:00,
2013-04-18 07:04:00,48.5,32.1,30.45,ENE,57,3.0,4.0,53,0.00,,,0.00,167,Wunderground v.1.15,2013-04-18 11:04:00,
2013-04-18 07:10:00,49.1,31.7,30.45,East,87,2.0,2.0,51,0.00,,,0.00,188,Wunderground v.1.15,2013-04-18 11:10:00,
2013-04-18 07:16:00,49.5,31.1,30.45,ENE,60,3.0,4.0,49,0.00,,,0.00,209,Wunderground v.1.15,2013-04-18 11:16:00,
2013-04-18 07:22:00,49.9,32.0,30.45,ENE,62,3.0,4.0,50,0.00,,,0.00,216,Wunderground v.1.15,2013-04-18 11:22:00,
2013-04-18 07:28:00,49.9,31.5,30.46,ENE,77,3.0,6.0,49,0.00,,,0.00,225,Wunderground v.1.15,2013-04-18 11:28:00,
2013-04-18 07:34:00,50.1,31.2,30.46,East,79,3.0,8.0,48,0.00,,,0.00,262,Wunderground v.1.15,2013-04-18 11:34:00,
2013-04-18 07:40:00,50.2,31.2,30.46,NE,55,3.0,3.0,48,0.00,,,0.00,281,Wunderground v.1.15,2013-04-18 11:40:00,
2013-04-18 07:46:00,50.5,31.5,30.46,ESE,109,2.0,4.0,48,0.00,,,0.00,308,Wunderground v.1.15,2013-04-18 11:46:00,
2013-04-18 07:52:00,50.7,31.7,30.46,ESE,110,2.0,6.0,48,0.00,,,0.00,330,Wunderground v.1.15,2013-04-18 11:52:00,
2013-04-18 07:58:00,50.8,31.8,30.46,East,89,2.0,6.0,48,0.00,,,0.00,350,Wunderground v.1.15,2013-04-18 11:58:00,
2013-04-18 08:04:00,50.7,30.7,30.46,East,80,3.0,5.0,46,0.00,,,0.00,369,Wunderground v.1.15,2013-04-18 12:04:00,
2013-04-18 08:10:00,50.5,30.5,30.47,East,90,4.0,4.0,46,0.00,,,0.00,390,Wunderground v.1.15,2013-04-18 12:10:00,
2013-04-18 08:16:00,50.7,30.7,30.47,ENE,62,4.0,6.0,46,0.00,,,0.00,410,Wunderground v.1.15,2013-04-18 12:16:00,
2013-04-18 08:22:00,50.7,30.7,30.47,ESE,104,5.0,6.0,46,0.00,,,0.00,431,Wunderground v.1.15,2013-04-18 12:22:00,
2013-04-18 08:28:00,51.0,30.9,30.47,ESE,107,4.0,6.0,46,0.00,,,0.00,448,Wunderground v.1.15,2013-04-18 12:28:00,
2013-04-18 08:34:00,51.3,32.3,30.47,ESE,115,3.0,6.0,48,0.00,,,0.00,471,Wunderground v.1.15,2013-04-18 12:34:00,
2013-04-18 08:40:00,51.3,31.7,30.47,East,90,3.0,3.0,47,0.00,,,0.00,490,Wunderground v.1.15,2013-04-18 12:40:00,
2013-04-18 08:46:00,51.6,32.5,30.47,SE,140,3.0,6.0,48,0.00,,,0.00,506,Wunderground v.1.15,2013-04-18 12:46:00,
2013-04-18 08:52:00,51.7,32.1,30.47,SE,133,2.0,6.0,47,0.00,,,0.00,527,Wunderground v.1.15,2013-04-18 12:52:00,
2013-04-18 08:58:00,51.4,32.3,30.47,SSE,150,3.0,6.0,48,0.00,,,0.00,548,Wunderground v.1.15,2013-04-18 12:58:00,
2013-04-18 09:04:00,52.2,32.6,30.47,ESE,109,3.0,6.0,47,0.00,,,0.00,564,Wunderground v.1.15,2013-04-18 13:04:00,
2013-04-18 09:10:00,52.2,32.6,30.46,ESE,111,2.0,9.0,47,0.00,,,0.00,585,Wunderground v.1.15,2013-04-18 13:10:00,
2013-04-18 09:16:00,51.6,32.5,30.46,SE,139,4.0,9.0,48,0.00,,,0.00,605,Wunderground v.1.15,2013-04-18 13:16:00,
2013-04-18 09:22:00,51.9,32.8,30.46,NE,39,4.0,9.0,48,0.00,,,0.00,619,Wunderground v.1.15,2013-04-18 13:22:00,
2013-04-18 09:28:00,52.5,33.4,30.45,ENE,73,3.0,9.0,48,0.00,,,0.00,631,Wunderground v.1.15,2013-04-18 13:28:00,
2013-04-18 09:34:00,52.6,33.5,30.45,SE,128,3.0,9.0,48,0.00,,,0.00,647,Wunderground v.1.15,2013-04-18 13:34:00,
2013-04-18 09:40:00,52.8,33.1,30.44,ESE,115,3.0,9.0,47,0.00,,,0.00,661,Wunderground v.1.15,2013-04-18 13:40:00,
2013-04-18 09:46:00,52.5,32.3,30.44,NE,49,4.0,9.0,46,0.00,,,0.00,680,Wunderground v.1.15,2013-04-18 13:46:00,
2013-04-18 09:52:00,52.8,33.1,30.44,SE,138,4.0,9.0,47,0.00,,,0.00,696,Wunderground v.1.15,2013-04-18 13:52:00,
2013-04-18 09:58:00,53.3,33.0,30.45,ENE,78,4.0,9.0,46,0.00,,,0.00,710,Wunderground v.1.15,2013-04-18 13:58:00,
2013-04-18 10:04:00,53.5,33.2,30.45,ENE,61,3.0,9.0,46,0.00,,,0.00,722,Wunderground v.1.15,2013-04-18 14:04:00,
2013-04-18 10:10:00,53.8,34.6,30.45,ENE,71,3.0,6.0,48,0.00,,,0.00,735,Wunderground v.1.15,2013-04-18 14:10:00,
2013-04-18 10:16:00,52.8,34.2,30.45,ENE,66,5.0,7.0,49,0.00,,,0.00,751,Wunderground v.1.15,2013-04-18 14:16:00,
2013-04-18 10:22:00,53.6,34.9,30.45,SSE,149,4.0,6.0,49,0.00,,,0.00,751,Wunderground v.1.15,2013-04-18 14:22:00,
2013-04-18 10:28:00,53.2,34.5,30.45,ENE,71,4.0,6.0,49,0.00,,,0.00,772,Wunderground v.1.15,2013-04-18 14:28:00,
2013-04-18 10:34:00,52.2,34.6,30.45,NE,46,6.0,8.0,51,0.00,,,0.00,786,Wunderground v.1.15,2013-04-18 14:34:00,
2013-04-18 10:40:00,52.8,34.2,30.46,ENE,66,6.0,6.0,49,0.00,,,0.00,802,Wunderground v.1.15,2013-04-18 14:40:00,
2013-04-18 10:46:00,53.2,34.0,30.46,ENE,71,5.0,7.0,48,0.00,,,0.00,810,Wunderground v.1.15,2013-04-18 14:46:00,
2013-04-18 10:52:00,54.1,33.8,30.46,ESE,111,5.0,7.0,46,0.00,,,0.00,819,Wunderground v.1.15,2013-04-18 14:52:00,
2013-04-18 10:58:00,55.1,34.1,30.45,ESE,118,3.0,7.0,45,0.00,,,0.00,831,Wunderground v.1.15,2013-04-18 14:58:00,
2013-04-18 11:04:00,54.7,34.3,30.45,NE,37,4.0,8.0,46,0.00,,,0.00,800,Wunderground v.1.15,2013-04-18 15:04:00,
2013-04-18 11:10:00,54.8,33.8,30.45,ENE,77,5.0,5.0,45,0.00,,,0.00,847,Wunderground v.1.15,2013-04-18 15:10:00,
2013-04-18 11:16:00,55.1,34.1,30.45,NE,35,4.0,8.0,45,0.00,,,0.00,856,Wunderground v.1.15,2013-04-18 15:16:00,
2013-04-18 11:22:00,54.8,34.4,30.45,ENE,60,5.0,8.0,46,0.00,,,0.00,863,Wunderground v.1.15,2013-04-18 15:22:00,
2013-04-18 11:28:00,55.0,34.0,30.44,ESE,103,5.0,10.0,45,0.00,,,0.00,872,Wunderground v.1.15,2013-04-18 15:28:00,
2013-04-18 11:34:00,55.0,33.5,30.44,ENE,67,5.0,7.0,44,0.00,,,0.00,877,Wunderground v.1.15,2013-04-18 15:34:00,
2013-04-18 11:40:00,55.4,33.3,30.43,East,101,4.0,7.0,43,0.00,,,0.00,882,Wunderground v.1.15,2013-04-18 15:40:00,
2013-04-18 11:46:00,55.7,33.5,30.43,ESE,110,5.0,7.0,43,0.00,,,0.00,882,Wunderground v.1.15,2013-04-18 15:46:00,
2013-04-18 11:52:00,56.0,33.2,30.43,East,94,4.0,7.0,42,0.00,,,0.00,900,Wunderground v.1.15,2013-04-18 15:52:00,
2013-04-18 11:58:00,55.6,33.4,30.43,ENE,58,4.0,10.0,43,0.00,,,0.00,926,Wunderground v.1.15,2013-04-18 15:58:00,
2013-04-18 12:04:00,56.2,32.8,30.43,ENE,63,5.0,7.0,41,0.00,,,0.00,995,Wunderground v.1.15,2013-04-18 16:04:00,
2013-04-18 12:10:00,55.6,32.8,30.42,ENE,69,4.0,6.0,42,0.00,,,0.00,550,Wunderground v.1.15,2013-04-18 16:10:00,
2013-04-18 12:16:00,55.9,32.5,30.42,ENE,78,5.0,6.0,41,0.00,,,0.00,577,Wunderground v.1.15,2013-04-18 16:16:00,
2013-04-18 12:22:00,56.5,33.1,30.42,East,79,5.0,11.0,41,0.00,,,0.00,555,Wunderground v.1.15,2013-04-18 16:22:00,
2013-04-18 12:28:00,56.7,32.6,30.41,East,98,5.0,11.0,40,0.00,,,0.00,522,Wunderground v.1.15,2013-04-18 16:28:00,
2013-04-18 12:34:00,56.9,31.5,30.41,ENE,73,4.0,6.0,38,0.00,,,0.00,1155,Wunderground v.1.15,2013-04-18 16:34:00,
2013-04-18 12:40:00,56.5,31.8,30.40,ENE,75,5.0,8.0,39,0.00,,,0.00,557,Wunderground v.1.15,2013-04-18 16:40:00,
2013-04-18 12:46:00,57.0,31.6,30.40,East,96,5.0,8.0,38,0.00,,,0.00,513,Wunderground v.1.15,2013-04-18 16:46:00,
2013-04-18 12:52:00,57.0,32.3,30.40,East,86,6.0,8.0,39,0.00,,,0.00,923,Wunderground v.1.15,2013-04-18 16:52:00,
2013-04-18 12:58:00,57.5,31.4,30.39,ENE,65,6.0,10.0,37,0.00,,,0.00,926,Wunderground v.1.15,2013-04-18 16:58:00,
2013-04-18 13:04:00,57.5,32.1,30.39,East,83,6.0,6.0,38,0.00,,,0.00,916,Wunderground v.1.15,2013-04-18 17:04:00,
2013-04-18 13:10:00,58.0,31.8,30.38,SE,130,6.0,7.0,37,0.00,,,0.00,962,Wunderground v.1.15,2013-04-18 17:10:00,
2013-04-18 13:16:00,58.0,32.5,30.38,ENE,78,6.0,7.0,38,0.00,,,0.00,896,Wunderground v.1.15,2013-04-18 17:16:00,
2013-04-18 13:22:00,58.7,31.1,30.38,ENE,71,5.0,9.0,35,0.00,,,0.00,900,Wunderground v.1.15,2013-04-18 17:22:00,
2013-04-18 13:28:00,59.5,31.8,30.37,ENE,70,4.0,9.0,35,0.00,,,0.00,888,Wunderground v.1.15,2013-04-18 17:28:00,
2013-04-18 13:34:00,59.8,31.3,30.37,ENE,59,5.0,7.0,34,0.00,,,0.00,882,Wunderground v.1.15,2013-04-18 17:34:00,
2013-04-18 13:40:00,61.5,32.1,30.36,East,80,4.0,7.0,33,0.00,,,0.00,874,Wunderground v.1.15,2013-04-18 17:40:00,
2013-04-18 13:46:00,60.9,30.0,30.36,East,92,4.0,7.0,31,0.00,,,0.00,877,Wunderground v.1.15,2013-04-18 17:46:00,
2013-04-18 13:52:00,60.5,31.2,30.36,East,93,5.0,7.0,33,0.00,,,0.00,874,Wunderground v.1.15,2013-04-18 17:52:00,
2013-04-18 13:58:00,60.9,30.8,30.35,East,82,4.0,7.0,32,0.00,,,0.00,893,Wunderground v.1.15,2013-04-18 17:58:00,
2013-04-18 14:04:00,61.3,31.9,30.35,NE,34,4.0,8.0,33,0.00,,,0.00,902,Wunderground v.1.15,2013-04-18 18:04:00,
2013-04-18 14:10:00,61.5,32.1,30.34,SE,139,5.0,5.0,33,0.00,,,0.00,838,Wunderground v.1.15,2013-04-18 18:10:00,
2013-04-18 14:16:00,62.9,31.8,30.34,ENE,65,3.0,11.0,31,0.00,,,0.00,425,Wunderground v.1.15,2013-04-18 18:16:00,
2013-04-18 14:22:00,62.6,31.5,30.34,South,179,3.0,4.0,31,0.00,,,0.00,366,Wunderground v.1.15,2013-04-18 18:22:00,
2013-04-18 14:28:00,62.1,30.3,30.34,SSE,157,3.0,11.0,30,0.00,,,0.00,311,Wunderground v.1.15,2013-04-18 18:28:00,
2013-04-18 14:34:00,63.1,31.1,30.34,SW,215,4.0,11.0,30,0.00,,,0.00,311,Wunderground v.1.15,2013-04-18 18:34:00,
2013-04-18 14:40:00,63.5,31.5,30.33,South,173,5.0,5.0,30,0.00,,,0.00,248,Wunderground v.1.15,2013-04-18 18:40:00,
2013-04-18 14:46:00,63.2,31.2,30.33,SW,221,5.0,11.0,30,0.00,,,0.00,234,Wunderground v.1.15,2013-04-18 18:46:00,
2013-04-18 14:52:00,63.1,31.9,30.33,SSE,149,5.0,11.0,31,0.00,,,0.00,209,Wunderground v.1.15,2013-04-18 18:52:00,
2013-04-18 14:58:00,62.9,31.8,30.32,ESE,117,4.0,11.0,31,0.00,,,0.00,204,Wunderground v.1.15,2013-04-18 18:58:00,
2013-04-18 15:04:00,63.1,31.9,30.32,SSW,192,5.0,11.0,31,0.00,,,0.00,271,Wunderground v.1.15,2013-04-18 19:04:00,
2013-04-18 15:10:00,62.9,31.0,30.32,SSE,168,5.0,13.0,30,0.00,,,0.00,346,Wunderground v.1.15,2013-04-18 19:10:00,
2013-04-18 15:16:00,62.9,31.0,30.32,South,178,7.0,13.0,30,0.00,,,0.00,260,Wunderground v.1.15,2013-04-18 19:16:00,
2013-04-18 15:22:00,62.6,31.5,30.32,WSW,240,6.0,13.0,31,0.00,,,0.00,234,Wunderground v.1.15,2013-04-18 19:22:00,
2013-04-18 15:28:00,62.7,30.0,30.32,South,189,5.0,13.0,29,0.00,,,0.00,216,Wunderground v.1.15,2013-04-18 19:28:00,
2013-04-18 15:34:00,62.3,31.3,30.32,SSE,148,7.0,7.0,31,0.00,,,0.00,179,Wunderground v.1.15,2013-04-18 19:34:00,
2013-04-18 15:40:00,62.1,31.1,30.32,SSW,192,7.0,13.0,31,0.00,,,0.00,123,Wunderground v.1.15,2013-04-18 19:40:00,
2013-04-18 15:46:00,61.8,30.0,30.32,SSW,200,7.0,13.0,30,0.00,,,0.00,120,Wunderground v.1.15,2013-04-18 19:46:00,
2013-04-18 15:52:00,61.2,29.5,30.32,WSW,257,10.0,13.0,30,0.00,,,0.00,160,Wunderground v.1.15,2013-04-18 19:52:00,
2013-04-18 15:58:00,61.2,30.3,30.31,WSW,250,10.0,13.0,31,0.00,,,0.00,236,Wunderground v.1.15,2013-04-18 19:58:00,
2013-04-18 16:04:00,61.5,29.7,30.31,South,189,7.0,13.0,30,0.00,,,0.00,206,Wunderground v.1.15,2013-04-18 20:04:00,
2013-04-18 16:10:00,61.3,29.6,30.31,SW,223,6.0,6.0,30,0.00,,,0.00,183,Wunderground v.1.15,2013-04-18 20:10:00,
2013-04-18 16:16:00,61.2,28.7,30.31,SW,216,6.0,13.0,29,0.00,,,0.00,185,Wunderground v.1.15,2013-04-18 20:16:00,
2013-04-18 16:22:00,60.9,29.2,30.31,South,190,8.0,9.0,30,0.00,,,0.00,211,Wunderground v.1.15,2013-04-18 20:22:00,
2013-04-18 16:28:00,60.7,27.4,30.30,SSW,202,8.0,11.0,28,0.00,,,0.00,234,Wunderground v.1.15,2013-04-18 20:28:00,
2013-04-18 16:34:00,60.7,27.4,30.30,SE,133,7.0,11.0,28,0.00,,,0.00,232,Wunderground v.1.15,2013-04-18 20:34:00,
2013-04-18 16:40:00,60.9,27.5,30.30,SE,146,6.0,6.0,28,0.00,,,0.00,199,Wunderground v.1.15,2013-04-18 20:40:00,
2013-04-18 16:46:00,60.2,26.9,30.30,SW,215,7.0,11.0,28,0.00,,,0.00,171,Wunderground v.1.15,2013-04-18 20:46:00,
2013-04-18 16:52:00,60.2,26.9,30.30,South,182,8.0,11.0,28,0.00,,,0.00,213,Wunderground v.1.15,2013-04-18 20:52:00,
2013-04-18 16:58:00,60.2,26.9,30.30,SSW,208,6.0,11.0,28,0.00,,,0.00,186,Wunderground v.1.15,2013-04-18 20:58:00,
2013-04-18 17:04:00,60.2,26.9,30.30,SSE,150,7.0,11.0,28,0.00,,,0.00,163,Wunderground v.1.15,2013-04-18 21:04:00,
2013-04-18 17:10:00,60.1,27.7,30.30,South,175,7.0,7.0,29,0.00,,,0.00,134,Wunderground v.1.15,2013-04-18 21:10:00,
2013-04-18 17:16:00,60.1,27.7,30.30,WSW,254,5.0,11.0,29,0.00,,,0.00,100,Wunderground v.1.15,2013-04-18 21:16:00,
2013-04-18 17:22:00,59.6,26.4,30.30,SSW,201,6.0,6.0,28,0.00,,,0.00,81,Wunderground v.1.15,2013-04-18 21:22:00,
2013-04-18 17:28:00,59.3,26.2,30.30,SE,141,7.0,11.0,28,0.00,,,0.00,69,Wunderground v.1.15,2013-04-18 21:28:00,
2013-04-18 17:34:00,59.2,26.9,30.30,SSW,192,6.0,11.0,29,0.00,,,0.00,77,Wunderground v.1.15,2013-04-18 21:34:00,
2013-04-18 17:40:00,58.9,26.7,30.30,SSW,200,6.0,6.0,29,0.00,,,0.00,76,Wunderground v.1.15,2013-04-18 21:40:00,
2013-04-18 17:46:00,58.9,26.7,30.30,SSW,198,6.0,11.0,29,0.00,,,0.00,65,Wunderground v.1.15,2013-04-18 21:46:00,
2013-04-18 17:52:00,58.6,27.2,30.30,South,172,6.0,11.0,30,0.00,,,0.00,56,Wunderground v.1.15,2013-04-18 21:52:00,
2013-04-18 17:58:00,58.0,26.7,30.30,SW,231,8.0,19.0,30,0.00,,,0.00,40,Wunderground v.1.15,2013-04-18 21:58:00,
2013-04-18 18:04:00,58.0,26.7,30.30,SSW,195,8.0,11.0,30,0.00,,,0.00,37,Wunderground v.1.15,2013-04-18 22:04:00,
2013-04-18 18:10:00,57.6,26.4,30.30,South,175,8.0,14.0,30,0.00,,,0.00,37,Wunderground v.1.15,2013-04-18 22:10:00,
2013-04-18 18:16:00,57.6,27.2,30.30,SW,216,6.0,14.0,31,0.00,,,0.00,40,Wunderground v.1.15,2013-04-18 22:16:00,
2013-04-18 18:22:00,57.6,27.2,30.30,SE,146,3.0,14.0,31,0.00,,,0.00,33,Wunderground v.1.15,2013-04-18 22:22:00,
2013-04-18 18:28:00,57.6,24.7,30.29,SSE,148,4.0,14.0,28,0.00,,,0.00,30,Wunderground v.1.15,2013-04-18 22:28:00,
2013-04-18 18:34:00,57.5,24.6,30.29,SSE,155,4.0,14.0,28,0.00,,,0.00,21,Wunderground v.1.15,2013-04-18 22:34:00,
2013-04-18 18:40:00,57.5,23.7,30.28,SE,138,5.0,5.0,27,0.00,,,0.00,21,Wunderground v.1.15,2013-04-18 22:40:00,
2013-04-18 18:46:00,57.2,23.5,30.28,SSE,150,5.0,14.0,27,0.00,,,0.00,19,Wunderground v.1.15,2013-04-18 22:46:00,
2013-04-18 18:52:00,57.2,24.3,30.28,South,186,6.0,14.0,28,0.00,,,0.00,18,Wunderground v.1.15,2013-04-18 22:52:00,
2013-04-18 18:58:00,57.0,24.2,30.28,South,186,5.0,14.0,28,0.00,,,0.00,14,Wunderground v.1.15,2013-04-18 22:58:00,
2013-04-18 19:04:00,56.9,23.2,30.28,South,181,6.0,14.0,27,0.00,,,0.00,9,Wunderground v.1.15,2013-04-18 23:04:00,
2013-04-18 19:10:00,56.9,23.2,30.28,SW,215,5.0,5.0,27,0.00,,,0.00,7,Wunderground v.1.15,2013-04-18 23:10:00,
2013-04-18 19:16:00,56.7,23.9,30.28,SSW,192,4.0,9.0,28,0.00,,,0.00,5,Wunderground v.1.15,2013-04-18 23:16:00,
2013-04-18 19:22:00,56.7,23.0,30.28,SSW,207,4.0,9.0,27,0.00,,,0.00,0,Wunderground v.1.15,2013-04-18 23:22:00,
2013-04-18 19:28:00,56.6,23.8,30.27,SSW,207,5.0,9.0,28,0.00,,,0.00,0,Wunderground v.1.15,2013-04-18 23:28:00,
2013-04-18 19:34:00,56.5,24.6,30.27,SSE,148,5.0,9.0,29,0.00,,,0.00,0,Wunderground v.1.15,2013-04-18 23:34:00,
2013-04-18 19:40:00,56.3,24.4,30.27,South,187,5.0,5.0,29,0.00,,,0.00,0,Wunderground v.1.15,2013-04-18 23:40:00,
2013-04-18 19:46:00,56.3,25.2,30.27,South,184,6.0,9.0,30,0.00,,,0.00,0,Wunderground v.1.15,2013-04-18 23:46:00,
2013-04-18 19:52:00,56.2,25.9,30.27,SW,229,6.0,9.0,31,0.00,,,0.00,0,Wunderground v.1.15,2013-04-18 23:52:00,
2013-04-18 19:58:00,55.9,27.9,30.27,SSW,196,5.0,12.0,34,0.00,,,0.00,0,Wunderground v.1.15,2013-04-18 23:58:00,
2013-04-18 20:04:00,55.7,29.8,30.27,SSW,200,7.0,10.0,37,0.00,,,0.00,0,Wunderground v.1.15,2013-04-19 00:04:00,
2013-04-18 20:10:00,55.6,30.4,30.27,SW,221,7.0,13.0,38,0.00,,,0.00,0,Wunderground v.1.15,2013-04-19 00:10:00,
2013-04-18 20:16:00,55.4,32.7,30.27,South,186,6.0,13.0,42,0.00,,,0.00,0,Wunderground v.1.15,2013-04-19 00:16:00,
2013-04-18 20:22:00,55.1,34.1,30.27,SW,218,7.0,9.0,45,0.00,,,0.00,0,Wunderground v.1.15,2013-04-19 00:22:00,
2013-04-18 20:28:00,55.0,35.7,30.26,SW,229,7.0,13.0,48,0.00,,,0.00,0,Wunderground v.1.15,2013-04-19 00:28:00,
2013-04-18 20:34:00,54.7,37.4,30.26,SSW,203,8.0,13.0,52,0.00,,,0.00,0,Wunderground v.1.15,2013-04-19 00:34:00,
2013-04-18 20:40:00,54.5,38.2,30.26,SSW,207,8.0,13.0,54,0.00,,,0.00,0,Wunderground v.1.15,2013-04-19 00:40:00,
2013-04-18 20:46:00,54.2,38.4,30.26,South,171,8.0,13.0,55,0.00,,,0.00,0,Wunderground v.1.15,2013-04-19 00:46:00,
2013-04-18 20:52:00,54.1,38.7,30.26,SSW,209,7.0,13.0,56,0.00,,,0.00,0,Wunderground v.1.15,2013-04-19 00:52:00,
2013-04-18 20:58:00,53.9,39.0,30.25,SSW,207,7.0,13.0,57,0.00,,,0.00,0,Wunderground v.1.15,2013-04-19 00:58:00,
2013-04-18 21:04:00,53.8,39.4,30.25,South,188,6.0,13.0,58,0.00,,,0.00,0,Wunderground v.1.15,2013-04-19 01:04:00,
2013-04-18 21:10:00,53.5,39.5,30.25,SE,136,5.0,9.0,59,0.00,,,0.00,0,Wunderground v.1.15,2013-04-19 01:10:00,
2013-04-18 21:16:00,53.3,39.8,30.25,SSW,192,6.0,10.0,60,0.00,,,0.00,0,Wunderground v.1.15,2013-04-19 01:16:00,
2013-04-18 21:22:00,53.2,40.1,30.25,South,178,6.0,9.0,61,0.00,,,0.00,0,Wunderground v.1.15,2013-04-19 01:22:00,
2013-04-18 21:28:00,53.2,39.7,30.25,SSW,201,7.0,12.0,60,0.00,,,0.00,0,Wunderground v.1.15,2013-04-19 01:28:00,
2013-04-18 21:34:00,53.2,39.7,30.25,SE,133,7.0,11.0,60,0.00,,,0.00,0,Wunderground v.1.15,2013-04-19 01:34:00,
2013-04-18 21:40:00,53.1,39.6,30.24,SSW,196,5.0,9.0,60,0.00,,,0.00,0,Wunderground v.1.15,2013-04-19 01:40:00,
2013-04-18 21:46:00,53.1,39.6,30.24,SSW,198,5.0,10.0,60,0.00,,,0.00,0,Wunderground v.1.15,2013-04-19 01:46:00,
2013-04-18 21:52:00,52.9,39.4,30.24,SSW,198,7.0,11.0,60,0.00,,,0.00,0,Wunderground v.1.15,2013-04-19 01:52:00,
2013-04-18 21:58:00,52.9,39.4,30.24,SSW,200,6.0,11.0,60,0.00,,,0.00,0,Wunderground v.1.15,2013-04-19 01:58:00,
2013-04-18 22:04:00,52.9,39.4,30.24,SSW,195,5.0,9.0,60,0.00,,,0.00,0,Wunderground v.1.15,2013-04-19 02:04:00,
2013-04-18 22:10:00,52.9,39.8,30.23,SSW,198,3.0,6.0,61,0.00,,,0.00,0,Wunderground v.1.15,2013-04-19 02:10:00,
2013-04-18 22:16:00,53.1,40.0,30.23,SSW,200,3.0,6.0,61,0.00,,,0.00,0,Wunderground v.1.15,2013-04-19 02:16:00,
2013-04-18 22:22:00,53.1,40.0,30.23,South,188,4.0,8.0,61,0.00,,,0.00,0,Wunderground v.1.15,2013-04-19 02:22:00,
2013-04-18 22:28:00,53.1,40.0,30.23,SE,141,5.0,9.0,61,0.00,,,0.00,0,Wunderground v.1.15,2013-04-19 02:28:00,
2013-04-18 22:34:00,53.1,40.4,30.23,South,175,5.0,6.0,62,0.00,,,0.00,0,Wunderground v.1.15,2013-04-19 02:34:00,
2013-04-18 22:40:00,52.9,40.2,30.22,SSW,193,5.0,6.0,62,0.00,,,0.00,0,Wunderground v.1.15,2013-04-19 02:40:00,
2013-04-18 22:46:00,52.9,40.2,30.22,South,171,4.0,6.0,62,0.00,,,0.00,0,Wunderground v.1.15,2013-04-19 02:46:00,
2013-04-18 22:52:00,52.9,40.6,30.22,South,175,4.0,5.0,63,0.00,,,0.00,0,Wunderground v.1.15,2013-04-19 02:52:00,
2013-04-18 22:58:00,52.9,41.0,30.21,SE,130,4.0,6.0,64,0.00,,,0.00,0,Wunderground v.1.15,2013-04-19 02:58:00,
2013-04-18 23:04:00,52.9,41.4,30.21,SW,216,5.0,6.0,65,0.00,,,0.00,0,Wunderground v.1.15,2013-04-19 03:04:00,
2013-04-18 23:10:00,52.9,41.4,30.20,SSW,212,5.0,8.0,65,0.00,,,0.00,0,Wunderground v.1.15,2013-04-19 03:10:00,
2013-04-18 23:16:00,52.9,41.4,30.20,SSE,161,3.0,8.0,65,0.00,,,0.00,0,Wunderground v.1.15,2013-04-19 03:16:00,
2013-04-18 23:22:00,52.9,41.4,30.20,SSE,151,2.0,5.0,65,0.00,,,0.00,0,Wunderground v.1.15,2013-04-19 03:22:00,
2013-04-18 23:28:00,52.8,41.7,30.19,SW,216,4.0,9.0,66,0.00,,,0.00,0,Wunderground v.1.15,2013-04-19 03:28:00,
2013-04-18 23:34:00,52.8,42.1,30.19,SSW,194,5.0,8.0,67,0.00,,,0.00,0,Wunderground v.1.15,2013-04-19 03:34:00,
2013-04-18 23:40:00,52.8,42.5,30.19,SSW,205,4.0,8.0,68,0.00,,,0.00,0,Wunderground v.1.15,2013-04-19 03:40:00,
2013-04-18 23:46:00,52.8,42.5,30.19,SSW,201,5.0,8.0,68,0.00,,,0.00,0,Wunderground v.1.15,2013-04-19 03:46:00,
2013-04-18 23:52:00,52.9,43.0,30.19,SSW,198,3.0,6.0,69,0.00,,,0.00,0,Wunderground v.1.15,2013-04-19 03:52:00,
2013-04-18 23:58:00,52.9,43.0,30.19,SE,132,3.0,8.0,69,0.00,,,0.00,0,Wunderground v.1.15,2013-04-19 03:58:00,